AF1 KCOS-KCOS

Flight info

Callsign AF1
Flight time N/A
Altitude 8000
Route PATTERNS
Aircraft C172/L-SFG/C

Departure

Time 2026-04-19 04:00
Airport City of Colorado Springs Municipal Airport (KCOS)

Arrival

Time N/A
Airport City of Colorado Springs Municipal Airport (KCOS)
Time Latitude Longitude Altitude Speed Heading
2026-04-19 03:40 38.80047 -104.70313 6193 ft 0 kts 110°
2026-04-19 03:47 38.80044 -104.70301 6193 ft 2 kts 108°
2026-04-19 03:47 38.80042 -104.70294 6193 ft 0 kts 105°
2026-04-19 03:48 38.80038 -104.70276 6193 ft 6 kts 104°
2026-04-19 03:48 38.80007 -104.70243 6193 ft 5 kts 176°
2026-04-19 03:48 38.80006 -104.70243 6193 ft 0 kts 178°
2026-04-19 03:49 38.80018 -104.70249 6192 ft 5 kts 120°
2026-04-19 03:49 38.80024 -104.70283 6191 ft 0 kts 96°
2026-04-19 03:49 38.80024 -104.70282 6193 ft 0 kts 96°
2026-04-19 03:50 38.80024 -104.70273 6193 ft 2 kts 83°
2026-04-19 03:51 38.80042 -104.70257 6193 ft 4 kts
2026-04-19 03:51 38.80069 -104.70277 6192 ft 6 kts 300°
2026-04-19 03:51 38.80077 -104.70394 6193 ft 15 kts 277°
2026-04-19 03:51 38.80144 -104.70438 6193 ft 21 kts 359°
2026-04-19 03:52 38.80204 -104.70436 6193 ft 0 kts
2026-04-19 03:52 38.80225 -104.70436 6193 ft 0 kts
2026-04-19 03:52 38.80273 -104.70465 6193 ft 14 kts 300°
2026-04-19 03:52 38.80280 -104.70592 6193 ft 16 kts 270°
2026-04-19 03:53 38.80281 -104.70687 6193 ft 7 kts 270°
2026-04-19 03:53 38.80281 -104.70716 6193 ft 4 kts 270°
2026-04-19 03:53 38.80280 -104.70761 6192 ft 2 kts 270°
2026-04-19 03:53 38.80280 -104.70774 6193 ft 8 kts 270°
2026-04-19 03:54 38.80281 -104.70922 6192 ft 17 kts 270°
2026-04-19 03:54 38.80281 -104.71140 6192 ft 26 kts 270°
2026-04-19 03:54 38.80284 -104.71315 6192 ft 14 kts 286°
2026-04-19 03:54 38.80356 -104.71347 6192 ft 11 kts 359°
2026-04-19 03:55 38.80429 -104.71348 6192 ft 6 kts
2026-04-19 03:55 38.80469 -104.71348 6192 ft 6 kts 360°
2026-04-19 03:55 38.80551 -104.71348 6193 ft 12 kts
2026-04-19 03:55 38.80635 -104.71348 6193 ft 12 kts
2026-04-19 03:56 38.80726 -104.71348 6193 ft 24 kts 360°
2026-04-19 03:56 38.80937 -104.71347 6193 ft 26 kts
2026-04-19 03:56 38.81096 -104.71347 6193 ft 22 kts 360°
2026-04-19 03:56 38.81247 -104.71347 6192 ft 21 kts
2026-04-19 03:57 38.81393 -104.71347 6192 ft 21 kts 360°
2026-04-19 03:57 38.81536 -104.71347 6192 ft 20 kts
2026-04-19 03:57 38.81673 -104.71346 6192 ft 19 kts 360°
2026-04-19 03:57 38.81805 -104.71346 6192 ft 19 kts
2026-04-19 03:58 38.81934 -104.71346 6192 ft 18 kts 360°
2026-04-19 03:58 38.82017 -104.71346 6193 ft 0 kts
2026-04-19 03:58 38.82097 -104.71306 6194 ft 18 kts 56°
2026-04-19 03:58 38.82068 -104.71217 6194 ft 10 kts 133°
2026-04-19 03:59 38.82064 -104.71212 6194 ft 0 kts 133°
2026-04-19 03:59 38.82056 -104.71201 6194 ft 15 kts 134°
2026-04-19 03:59 38.81811 -104.70890 6193 ft 83 kts 135°
2026-04-19 04:00 38.81256 -104.70187 6193 ft 139 kts 135°
2026-04-19 04:00 38.80445 -104.69170 6207 ft 182 kts 136°
2026-04-19 04:00 38.79483 -104.67993 6486 ft 202 kts 137°
2026-04-19 04:00 38.78451 -104.66662 6842 ft 221 kts 129°
2026-04-19 04:01 38.77755 -104.64883 7462 ft 229 kts 103°
2026-04-19 04:01 38.79063 -104.61279 7911 ft 272 kts 26°
2026-04-19 04:01 38.80690 -104.60053 8267 ft 271 kts 35°
2026-04-19 04:02 38.82255 -104.58692 8548 ft 272 kts 32°
2026-04-19 04:02 38.83885 -104.57413 8717 ft 276 kts 30°
2026-04-19 04:02 38.85680 -104.56784 8901 ft 272 kts 341°
2026-04-19 04:02 38.87049 -104.58315 8968 ft 268 kts 299°
2026-04-19 04:03 38.87674 -104.60533 9172 ft 265 kts 280°
2026-04-19 04:03 38.88012 -104.62889 8990 ft 276 kts 278°
2026-04-19 04:03 38.88265 -104.65282 8862 ft 264 kts 274°
2026-04-19 04:03 38.88492 -104.67565 8748 ft 253 kts 281°
2026-04-19 04:04 38.89029 -104.69689 8658 ft 247 kts 292°
2026-04-19 04:04 38.89864 -104.71629 8452 ft 248 kts 299°
2026-04-19 04:04 38.90577 -104.73580 8174 ft 239 kts 279°
2026-04-19 04:04 38.90335 -104.75580 7878 ft 224 kts 237°
2026-04-19 04:05 38.89231 -104.76814 7567 ft 203 kts 200°
2026-04-19 04:05 38.87911 -104.77125 7384 ft 187 kts 180°
2026-04-19 04:05 38.86656 -104.77086 7270 ft 168 kts 176°
2026-04-19 04:05 38.85550 -104.76958 7044 ft 156 kts 173°
2026-04-19 04:06 38.84516 -104.76842 6835 ft 140 kts 165°
2026-04-19 04:06 38.83760 -104.76160 6736 ft 139 kts 128°
2026-04-19 04:06 38.83451 -104.74898 6752 ft 163 kts 98°
2026-04-19 04:06 38.83330 -104.73446 6639 ft 166 kts 103°
2026-04-19 04:07 38.82800 -104.72158 6407 ft 171 kts 135°
2026-04-19 04:07 38.82004 -104.71134 6206 ft 152 kts 136°
2026-04-19 04:07 38.81279 -104.70215 6193 ft 157 kts 135°
2026-04-19 04:07 38.80454 -104.69159 6490 ft 166 kts 135°
2026-04-19 04:08 38.79694 -104.68120 6798 ft 153 kts 134°
2026-04-19 04:08 38.78988 -104.67095 6930 ft 155 kts 133°
2026-04-19 04:08 38.78257 -104.66030 7059 ft 165 kts 133°
2026-04-19 04:08 38.77475 -104.64903 7063 ft 171 kts 133°
2026-04-19 04:09 38.76674 -104.63755 7141 ft 176 kts 134°
2026-04-19 04:09 38.75876 -104.62570 7119 ft 174 kts 127°
2026-04-19 04:09 38.75442 -104.61153 7113 ft 176 kts 88°
2026-04-19 04:09 38.75998 -104.59762 7161 ft 183 kts 41°
2026-04-19 04:10 38.77048 -104.58793 7137 ft 188 kts 37°
2026-04-19 04:10 38.78110 -104.57814 7115 ft 186 kts 37°
2026-04-19 04:10 38.79161 -104.56881 7105 ft 184 kts 28°
2026-04-19 04:10 38.80392 -104.56766 7131 ft 185 kts 338°
2026-04-19 04:11 38.81392 -104.57765 7139 ft 184 kts 313°
2026-04-19 04:11 38.82316 -104.58921 7128 ft 186 kts 314°
2026-04-19 04:11 38.83252 -104.60090 7092 ft 189 kts 314°
2026-04-19 04:11 38.84186 -104.61261 7107 ft 186 kts 315°
2026-04-19 04:12 38.85095 -104.62403 7098 ft 183 kts 314°
2026-04-19 04:12 38.86008 -104.63548 7125 ft 184 kts 314°
2026-04-19 04:12 38.86720 -104.64839 7156 ft 177 kts 281°
2026-04-19 04:12 38.87043 -104.66355 7276 ft 174 kts 285°
2026-04-19 04:13 38.87436 -104.67803 7413 ft 172 kts 289°
2026-04-19 04:13 38.87808 -104.69239 7375 ft 168 kts 271°
2026-04-19 04:13 38.87442 -104.70574 7209 ft 159 kts 228°
2026-04-19 04:13 38.86601 -104.71447 7077 ft 158 kts 205°
2026-04-19 04:14 38.85553 -104.71849 6896 ft 158 kts 189°
2026-04-19 04:14 38.84465 -104.71977 6727 ft 156 kts 181°
2026-04-19 04:14 38.83385 -104.71939 6524 ft 154 kts 172°
2026-04-19 04:14 38.82382 -104.71558 6272 ft 152 kts 148°
2026-04-19 04:15 38.81675 -104.70703 6194 ft 125 kts 136°
2026-04-19 04:15 38.80974 -104.69831 6233 ft 157 kts 136°
2026-04-19 04:15 38.80185 -104.68809 6633 ft 157 kts 135°
2026-04-19 04:15 38.79464 -104.67770 7068 ft 157 kts 132°
2026-04-19 04:16 38.78788 -104.66669 7335 ft 162 kts 132°
2026-04-19 04:16 38.78365 -104.65301 7278 ft 177 kts 91°
2026-04-19 04:16 38.78861 -104.63877 7257 ft 184 kts 41°
2026-04-19 04:16 38.80069 -104.63374 7180 ft 187 kts 355°
2026-04-19 04:17 38.81190 -104.64101 7138 ft 182 kts 315°
2026-04-19 04:17 38.82075 -104.65253 7163 ft 185 kts 312°
2026-04-19 04:17 38.82956 -104.66462 7108 ft 186 kts 310°
2026-04-19 04:17 38.83800 -104.67669 7069 ft 181 kts 308°
2026-04-19 04:18 38.84636 -104.68886 7054 ft 180 kts 311°
2026-04-19 04:18 38.85455 -104.70103 7115 ft 180 kts 298°
2026-04-19 04:18 38.85363 -104.71554 7118 ft 174 kts 226°
2026-04-19 04:18 38.84298 -104.72063 6965 ft 158 kts 167°
2026-04-19 04:19 38.83770 -104.71008 6987 ft 166 kts 63°
2026-04-19 04:19 38.84762 -104.70467 7049 ft 176 kts 333°
2026-04-19 04:19 38.85146 -104.71728 7010 ft 172 kts 232°
2026-04-19 04:19 38.84049 -104.72187 6762 ft 173 kts 174°
2026-04-19 04:20 38.82922 -104.71988 6814 ft 168 kts 200°
2026-04-19 04:20 38.82661 -104.73260 6858 ft 179 kts 316°
2026-04-19 04:20 38.83784 -104.73364 6998 ft 177 kts 42°
2026-04-19 04:20 38.84085 -104.71948 6966 ft 179 kts 118°
2026-04-19 04:21 38.83114 -104.71271 6529 ft 167 kts 185°
2026-04-19 04:21 38.82062 -104.71271 6231 ft 136 kts 137°
2026-04-19 04:21 38.81420 -104.70336 6361 ft 149 kts 130°
2026-04-19 04:21 38.80684 -104.69346 6702 ft 155 kts 136°
2026-04-19 04:22 38.79938 -104.68348 7124 ft 153 kts 134°
2026-04-19 04:22 38.79213 -104.67314 7258 ft 152 kts 133°
2026-04-19 04:22 38.78865 -104.66043 7216 ft 164 kts 78°
2026-04-19 04:22 38.79733 -104.65114 7078 ft 182 kts
2026-04-19 04:23 38.80807 -104.65823 7127 ft 182 kts 313°
2026-04-19 04:23 38.81700 -104.66989 7123 ft 187 kts 312°
2026-04-19 04:23 38.82591 -104.68230 7059 ft 185 kts 319°
2026-04-19 04:23 38.83714 -104.68240 7165 ft 179 kts 53°
2026-04-19 04:24 38.83696 -104.66785 7145 ft 184 kts 140°
2026-04-19 04:24 38.82478 -104.66634 7001 ft 194 kts 214°
2026-04-19 04:24 38.81916 -104.68232 6730 ft 215 kts 274°
2026-04-19 04:24 38.82548 -104.69838 6568 ft 192 kts 308°
2026-04-19 04:25 38.83368 -104.71139 6606 ft 177 kts 286°
2026-04-19 04:25 38.83800 -104.72484 6445 ft 154 kts 295°
2026-04-19 04:25 38.84322 -104.73743 6712 ft 166 kts 296°
2026-04-19 04:25 38.84850 -104.75127 6918 ft 170 kts 297°
2026-04-19 04:26 38.84879 -104.76448 6966 ft 158 kts 222°
2026-04-19 04:26 38.83964 -104.76355 6905 ft 161 kts 128°
2026-04-19 04:26 38.83667 -104.74905 6882 ft 166 kts 102°
2026-04-19 04:26 38.83410 -104.73501 6592 ft 166 kts 111°
2026-04-19 04:27 38.82839 -104.72242 6360 ft 164 kts 134°
2026-04-19 04:27 38.82745 -104.72114 6350 ft 167 kts 135°
2026-04-19 04:27 38.81987 -104.71117 6194 ft 121 kts 135°